This demonstration page uses our WeatherBlox Daily Observations layout. Learn more.

Left ArrowRight Arrow

38.20091, -84.87328

Hourly Observations for October 8, 2021

Temp ( °F °C ) Dew Point ( °F °C ) Humidity (%) Winds ( mph kmh ) Pressure ( in mb ) Visibility ( mi km ) Precip ( " mm )
12:53 am 00:53 Mostly Clear 66 18.9 65 18.3 96 96 SW 3 6 30.04 1017 10 16 N/A
1:53 am 01:53 Clear 66 18.9 65 18.3 96 96 SE 3 6 30.03 1017 10 16 N/A
2:53 am 02:53 Clear 65 18.3 63 17.2 93 93 N N/A 30.03 1017 10 16 N/A
3:04 am 03:04 Mostly Clear 64 17.8 63 17.2 96 96 N N/A 30.04 1017 10 16 N/A
3:22 am 03:22 Mostly Cloudy with Mist and Fog 63 17.2 62 16.7 97 97 N N/A 30.04 1017 3 4 N/A
3:32 am 03:32 Mostly Cloudy with Mist and Fog 63 17.2 63 17.2 100 100 N N/A 30.04 1017 3 5 N/A
3:36 am 03:36 Cloudy with Mist and Fog 63 17.2 63 17.2 100 100 N N/A 30.04 1017 2 3 N/A
3:39 am 03:39 Mostly Cloudy with Mist and Fog 63 17.2 63 17.2 100 100 N N/A 30.04 1017 1 1 N/A
3:53 am 03:53 Cloudy with Fog 64 17.8 64 17.8 100 100 N N/A 30.03 1017 1 1 N/A
3:59 am 03:59 Cloudy with Mist and Fog 64 17.8 64 17.8 100 100 N N/A 30.04 1017 1 2 N/A
4:03 am 04:03 Cloudy with Mist and Fog 64 17.8 64 17.8 100 100 N N/A 30.04 1017 3 4 N/A
4:10 am 04:10 Cloudy 64 17.8 64 17.8 100 100 N N/A 30.04 1017 7 11 N/A
4:45 am 04:45 Cloudy with Mist and Fog 66 18.9 65 18.3 96 96 N N/A 30.04 1017 2 2 N/A
4:47 am 04:47 Cloudy with Mist and Fog 66 19 64 18 94 94 N N/A 30.04 1017 1 1 N/A
4:53 am 04:53 Mostly Cloudy with Fog 66 18.9 65 18.3 96 96 WSW 3 6 30.04 1017 0 0 N/A
5:53 am 05:53 Mostly Cloudy with Fog 65 18.3 65 18.3 100 100 SW 3 6 30.04 1017 0 0 N/A
6:53 am 06:53 Mostly Cloudy with Fog 64 17.8 64 17.8 100 100 SW 5 7 30.06 1018 0 0 N/A
7:53 am 07:53 Mostly Cloudy with Fog 64 17.8 64 17.8 100 100 N N/A 30.06 1018 N/A N/A
8:27 am 08:27 Mostly Cloudy with Fog 64 17.8 64 17.8 100 100 N N/A 30.08 1019 0 0 N/A
8:37 am 08:37 Mostly Cloudy with Fog 65 18.3 64 17.8 97 97 N N/A 30.08 1018 N/A N/A
8:48 am 08:48 Mostly Cloudy with Fog 64 18 64 18 100 100 N N/A 30.09 1019 0 0 N/A
8:53 am 08:53 Partly Cloudy with Fog 65 18.3 65 18.3 100 100 N N/A 30.08 1019 0 0 N/A
9:22 am 09:22 undefined 65 18.3 65 18.3 100 100 undefined N/A 30.09 1019 N/A N/A
9:31 am 09:31 Cloudy 67 19.4 66 18.9 97 97 SW 3 6 30.08 1019 N/A N/A
9:53 am 09:53 Cloudy 66 18.9 66 18.9 100 100 N N/A 30.08 1019 N/A N/A
10:53 am 10:53 Mostly Cloudy 70 21.1 67 19.4 90 90 N N/A 30.09 1019 10 16 N/A
11:36 am 11:36 Mostly Cloudy 74 23.3 67 19.4 79 79 N N/A 30.07 1018 10 16 N/A
11:53 am 11:53 Mostly Cloudy 76 24.4 66 18.9 72 72 NNW 5 7 30.08 1019 10 16 N/A
12:10 pm 12:10 Mostly Cloudy 76 24.4 66 18.9 72 72 N N/A 30.07 1018 10 16 N/A
12:53 pm 12:53 Mostly Cloudy 78 25.6 65 18.3 64 64 N N/A 30.06 1018 10 16 N/A
1:12 pm 13:12 Mostly Cloudy 77 25 63 17.2 62 62 W 6 9 30.05 1018 10 16 N/A
1:53 pm 13:53 Mostly Sunny 78 25.6 62 16.7 58 58 SSW 7 11 30.04 1017 10 16 N/A
2:53 pm 14:53 Mostly Sunny 79 26.1 63 17.2 58 58 SW 6 9 30.01 1016 10 16 N/A
3:53 pm 15:53 Mostly Cloudy 79 26.1 62 16.7 56 56 SSW 8 13 29.99 1016 10 16 N/A
4:53 pm 16:53 Mostly Cloudy 77 25 61 16.1 58 58 WSW 7 11 29.98 1015 10 16 N/A
5:53 pm 17:53 Partly Cloudy 75 23.9 64 17.8 69 69 SW 6 9 29.99 1016 10 16 N/A
6:53 pm 18:53 Mostly Cloudy 74 23.3 64 17.8 71 71 S 6 9 29.99 1016 10 16 N/A
7:53 pm 19:53 Clear 69 20.6 64 17.8 84 84 S 3 6 30.00 1016 10 16 N/A
8:53 pm 20:53 Clear 67 19.4 64 17.8 91 91 N N/A 30.01 1016 10 16 N/A
9:53 pm 21:53 Clear 65 18.3 63 17.2 93 93 N N/A 30.01 1016 10 16 N/A
10:53 pm 22:53 Clear 64 17.8 62 16.7 93 93 N N/A 30.01 1016 10 16 N/A
11:53 pm 23:53 Clear 62 16.7 61 16.1 96 96 N N/A 30.01 1016 8 13 N/A

Powered by AerisWeather